Tracking 27124 objects as of 31-Mar-2023
HD Live streaming from Space Station
objects crossing your sky now

TITAN 34B R/B

Track TITAN 34B R/B now!


NORAD ID: 15227
Int'l Code: 1984-091B
Perigee: 619.5 km
Apogee: 38,774.9 km
Inclination: 63.3 °
Period: 698.1 minutes
Semi major axis: 26068 km
RCS: Unknown
Launch date: August 28, 1984
Source: United States (US)
Launch site: AIR FORCE WESTERN TEST RANGE (AFWTR)

Note: This is a ROCKET BODY
Your satellite tracking list
Your tracking list is empty




NASA's NSSDC Master Catalog

Two Line Element Set (TLE):
1 15227U 84091B   23088.97955984 -.00001043  00000-0  12585-2 0  9998
2 15227  63.3147  81.1337 7318371 267.3217  15.3215  2.06270256 30161
Source of the keplerian elements: AFSPC